DW8903 Weather Reports


time (UTC)temp
C
wind
direction
speed
KPH
gust
KPH
rain 1hr
cm
rain 24hr
cm
rain mn
cm
humidity
%
barometer
mb
20260906063018 9 302 0.0 3.2 0.00 0.03 0.03 92 1006.9
20260906061514 8 321 0.0 3.2 0.00 0.03 0.03 93 1006.9
20260906060012 7 317 0.0 1.6 0.00 0.03 0.03 93 1006.7
20260906054550 6 319 0.0 1.6 0.00 0.03 0.03 92 1006.7
20260906053102 6 319 0.0 1.6 0.00 0.03 0.03 92 1006.6
20260906051548 6 316 0.0 1.6 0.00 0.03 0.03 92 1006.4
20260906050052 5 315 0.0 1.6 0.00 0.03 0.03 91 1006.3
20260906044545 5 320 0.0 1.6 0.00 0.03 0.03 90 1006.2
20260906043046 5 317 0.0 1.6 0.00 0.03 0.03 89 1006.1
20260906041540 5 317 1.6 6.4 0.00 0.03 0.03 88 1006.0
20260906040040 5 321 0.0 6.4 0.00 0.03 0.03 88 1005.9
20260906034535 6 314 0.0 3.2 0.00 0.03 0.03 88 1005.7
20260906033034 6 319 0.0 4.8 0.00 0.03 0.03 88 1005.6
20260906031532 6 323 3.2 8.0 0.00 0.03 0.03 89 1005.3
20260906030027 6 316 3.2 9.7 0.00 0.03 0.03 89 1005.1
20260906024527 7 333 1.6 12.9 0.00 0.03 0.03 89 1005.0
20260906023027 7 315 4.8 12.9 0.00 0.03 0.03 89 1004.7
20260906021522 7 315 4.8 16.1 0.00 0.03 0.03 90 1004.6
20260906020023 7 300 4.8 14.5 0.00 0.03 0.03 91 1004.5
20260906014526 7 321 4.8 12.9 0.00 0.03 0.03 91 1004.4
20260906013029 7 321 4.8 12.9 0.00 0.03 0.03 91 1004.2
20260906011517 7 322 6.4 17.7 0.00 0.03 0.03 91 1004.0
20260906010015 7 318 6.4 17.7 0.00 0.03 0.03 91 1003.9
20260906004512 7 317 3.2 9.7 0.00 0.03 0.03 91 1003.7
20260906003010 7 313 1.6 6.4 0.00 0.03 0.03 91 1003.5
20260906001516 7 320 1.6 6.4 0.00 0.03 0.03 91 1003.3
20260906000019 6 297 0.0 3.2 0.00 0.03 0.03 91 1003.2
20260905234507 6 319 3.2 12.9 0.00 0.03 0.03 90 1003.0
20260905233004 7 321 0.0 8.0 0.00 0.03 0.03 91 1003.0
20260905231502 6 325 0.0 3.2 0.00 0.03 0.03 90 1002.8
20260905230001 6 319 0.0 3.2 0.00 0.03 0.03 90 1002.8
20260905224558 7 321 0.0 3.2 0.00 0.03 0.03 89 1002.5
20260905223056 7 318 0.0 6.4 0.00 0.03 0.03 89 1002.4
20260905221555 7 321 0.0 3.2 0.03 0.03 0.03 88 1002.2
20260905220052 7 321 0.0 6.4 0.03 0.03 0.03 88 1002.2
20260905214550 7 325 0.0 1.6 0.03 0.03 0.03 88 1002.0
20260905213048 8 332 0.0 1.6 0.03 0.03 0.03 89 1001.8
20260905211551 8 333 0.0 8.0 0.00 0.00 0.00 89 1001.7
20260905210047 8 321 0.0 1.6 0.00 0.00 0.00 89 1001.4
20260905204545 8 325 0.0 3.2 0.00 0.00 0.00 88 1001.3
20260905203042 8 329 0.0 1.6 0.00 0.00 0.00 88 1001.1
20260905201539 8 317 0.0 6.4 0.00 0.00 0.00 88 1000.9
20260905200041 9 317 1.6 12.9 0.00 0.00 0.00 88 1000.7
20260905194536 9 341 3.2 4.8 0.00 0.00 0.00 89 1000.5
20260905193035 10 326 0.0 4.8 0.00 0.00 0.00 89 1000.3
20260905191532 10 5 0.0 3.2 0.00 0.00 0.00 89 1000.2
20260905190032 10 29 0.0 4.8 0.00 0.00 0.00 88 1000.1
20260905184545 10 325 1.6 4.8 0.00 0.00 0.00 87 999.9
20260905183040 10 317 0.0 3.2 0.00 0.00 0.00 86 999.8
20260905181529 10 317 0.0 1.6 0.00 0.00 0.00 85 999.7
20260905180033 11 317 0.0 3.2 0.00 0.00 0.00 85 999.6
20260905174526 11 317 0.0 1.6 0.00 0.00 0.00 83 999.5
20260905173023 11 317 0.0 0.0 0.00 0.00 0.00 83 999.3
20260905171522 12 316 0.0 1.6 0.00 0.00 0.00 83 999.1
20260905170021 12 315 0.0 1.6 0.00 0.00 0.00 83 998.9
20260905164519 13 320 0.0 6.4 0.00 0.00 0.00 82 998.6
20260905163017 13 321 0.0 3.2 0.00 0.00 0.00 81 998.4
20260905161516 13 310 0.0 4.8 0.00 0.00 0.00 81 998.4
20260905160021 13 327 0.0 6.4 0.00 0.00 0.00 80 998.1
20260905154513 14 329 0.0 1.6 0.00 0.00 0.00 79 997.9
20260905153013 14 329 0.0 1.6 0.00 0.00 0.00 77 997.8
20260905151512 15 322 0.0 3.2 0.00 0.00 0.00 77 997.8
20260905150011 15 315 0.0 6.4 0.00 0.00 0.00 73 997.7
20260905144508 15 338 0.0 3.2 0.00 0.00 0.00 71 997.4
20260905143008 16 317 0.0 1.6 0.00 0.00 0.00 69 997.3
20260905141507 16 322 0.0 3.2 0.00 0.00 0.00 69 997.3
20260905140005 16 297 0.0 3.2 0.00 0.00 0.00 69 997.0
20260905134504 16 321 0.0 1.6 0.00 0.00 0.00 69 997.0
20260905133007 16 316 0.0 3.2 0.00 0.00 0.00 67 996.9
20260905131503 16 319 0.0 1.6 0.00 0.00 0.00 68 996.8
20260905130001 16 336 0.0 12.9 0.00 0.00 0.00 66 996.7
20260905124600 16 322 3.2 14.5 0.00 0.03 0.00 65 996.6
20260905123102 16 321 3.2 8.0 0.00 0.03 0.00 66 996.6
20260905121603 17 338 1.6 14.5 0.00 0.03 0.00 60 996.5
20260905120057 18 248 1.6 8.0 0.00 0.03 0.00 53 996.3
20260905114554 17 324 0.0 6.4 0.00 0.03 0.00 56 996.2
20260905113053 17 319 0.0 6.4 0.00 0.03 0.00 61 996.2
20260905111640 15 311 0.0 4.8 0.00 0.03 0.00 67 996.2
20260905110050 17 310 0.0 4.8 0.00 0.03 0.00 62 996.0
20260905104546 16 311 0.0 6.4 0.00 0.03 0.00 64 995.9
20260905103046 17 323 0.0 3.2 0.00 0.03 0.00 65 995.8
20260905101550 16 319 0.0 1.6 0.00 0.03 0.00 66 995.8
20260905100047 16 311 0.0 9.7 0.00 0.03 0.00 69 995.7
20260905094536 15 322 0.0 3.2 0.00 0.03 0.00 68 995.6
20260905093033 16 316 1.6 8.0 0.00 0.03 0.00 69 995.6
20260905091529 15 306 0.0 4.8 0.00 0.03 0.00 73 995.5
20260905090026 14 323 0.0 4.8 0.00 0.03 0.00 73 995.5
20260905084521 13 319 0.0 4.8 0.00 0.03 0.00 81 995.4
20260905083018 12 319 0.0 3.2 0.00 0.03 0.00 91 995.3
20260905081515 11 321 0.0 3.2 0.00 0.03 0.00 93 995.4
20260905080012 10 317 0.0 3.2 0.00 0.03 0.00 93 995.3
20260905074509 10 314 0.0 3.2 0.00 0.03 0.00 94 995.3
20260905073006 9 304 0.0 1.6 0.00 0.03 0.00 94 995.2
20260905071503 8 13 0.0 3.2 0.00 0.03 0.00 94 995.1
20260905070101 8 106 0.0 1.6 0.00 0.03 0.00 94 995.0
20260905064601 7 107 0.0 1.6 0.00 0.03 0.00 94 994.9